Regional Weather Roundup
Issued by NWS Upton, NY

Current Version | Previous Version | Graphics & Text | Print | Product List | Glossary On
Versions: 1 2 3 4 5 6 7 8 9 10 11 12 13 14 15 16 17 18 19 20 21 22 23 24 25 26 27 28 29 30 31 32 33 34 35 36 37 38 39 40 41 42 43 44 45 46 47 48 49 50
000
ASUS41 KOKX 030305
RWROKX

REGIONAL WEATHER ROUNDUP
NATIONAL WEATHER SERVICE NEW YORK NY
1100 PM EDT TUE SEP 02 2014

NOTE: "FAIR" INDICATES FEW OR NO CLOUDS BELOW 12,000 FEET WITH NO
SIGNIFICANT WEATHER AND/OR OBSTRUCTIONS TO VISIBILITY.

NYZ071-072-176-178-NJZ106-104-030400-
NEW YORK CITY METRO AREA


CITY           SKY/WX    TMP DP  RH WIND       PRES   REMARKS
CENTRAL PARK   MOCLDY    84  65  52 W14G22    29.82F
LAGUARDIA APRT MOCLDY    85  67  54 W22G35    29.79F
KENNEDY INTL   MOCLDY    83  69  62 SW20      29.81F
NEWARK/LIBERTY CLOUDY    84  65  52 SW22G30   29.80S
BRNX BOT. GARD   N/A     84  66  54 SW15      29.79F
TETERBORO      CLOUDY    85  65  51 SW13G28   29.78S
$$

NYZ177-179-078>081-030400-
LONG ISLAND NEW YORK

CITY           SKY/WX    TMP DP  RH WIND       PRES   REMARKS
FARMINGDALE    PTCLDY    80  71  74 SW14      29.81F
ISLIP          MOCLDY    81  71  71 SW14G20   29.79F
SHIRLEY        CLEAR     81  71  71 SW8       29.81F
WESTHAMPTON    CLEAR     79  71  76 SW10G18   29.82F
MONTAUK POINT    N/A     77  71  82 SW8G17    29.81F
$$

NYZ052-065-067-030400-
HUDSON VALLEY

CITY           SKY/WX    TMP DP  RH WIND       PRES   REMARKS
WHITE PLAINS   MOCLDY    83  69  62 VRB7G16   29.78F
NEWBURGH       MOCLDY    79  72  78 SW12      29.79F
MONTGOMERY     CLOUDY    77  70  79 SW13      29.77F
POUGHKEEPSIE   CLOUDY    83  68  60 SW6       29.75F
ALBANY         LGT RAIN  70  67  90 W12       29.80R FOG
$$

NJZ001-105-106-008-010-013-015-019>022-104-030400-
NEW JERSEY

CITY           SKY/WX    TMP DP  RH WIND       PRES   REMARKS
NEWARK/LIBERTY CLOUDY    84  65  52 SW22G30   29.80S
TETERBORO      CLOUDY    85  65  51 SW13G28   29.78S
CALDWELL       CLOUDY    82  64  54 W8G21     29.80S
MORRISTOWN     CLOUDY    82  64  54 SW16      29.81S
SOMERVILLE     CLOUDY    81  65  58 VRB7      29.82S
LINDEN         FAIR      87  69  54 W13G22    29.83S HX  91
SUSSEX         CLOUDY    78  71  79 SW7       29.82R
ANDOVER          N/A     77  69  76 W10G21    29.84R
TRENTON        CLOUDY    77  67  71 W9        29.86R
MILLVILLE      CLOUDY    74  69  85 CALM      29.87F
ATLANTIC CITY  LGT RAIN  72  68  87 S7        29.89R
WRIGHTSTOWN    LGT RAIN  73  68  83 W17G24    29.85F
TOMS RIVER     CLOUDY    75  70  83 W9        29.89R
BELMAR         CLOUDY    77  64  65 SW8       29.86R
$$

PAZ047>061-062-071-030400-
EASTERN PENNSYLVANIA

CITY           SKY/WX    TMP DP  RH WIND       PRES   REMARKS
PHILADELPHIA   CLOUDY    76  69  79 SW7       29.87F
ALLENTOWN      MOCLDY    75  66  73 SW13      29.87S
SCRANTON       MOCLDY    72  64  76 NW9       29.90R
$$

CTZ002-004>006-009-010-012-RIZ004-006-007-MAZ004-011-015-030400-
SOUTHERN NEW ENGLAND
 IN CT

CITY           SKY/WX    TMP DP  RH WIND       PRES   REMARKS
BRADLEY INTL   MOCLDY    80  71  74 S9        29.75F
HARTFORD       CLEAR     79  71  76 S8        29.75F
DANBURY        MOCLDY    81  67  62 S7        29.79F
WTRBRY/OXFORD  PTCLDY    75  70  83 SW6       29.82F
BRIDGEPORT     CLEAR     81  73  76 SW10      29.78F
MERIDEN        CLEAR     78  71  79 S5        29.78S
NEW HAVEN      PTCLDY    81  72  74 SW6       29.78F
CHESTER        FAIR      77  72  83 SW5       29.81F
GROTON         CLEAR     75  71  87 VRB3      29.79S
WILLIMANTIC    CLEAR     77  71  82 S3        29.79S

 IN RI

CITY           SKY/WX    TMP DP  RH WIND       PRES   REMARKS
PROVIDENCE     PTCLDY    76  71  85 SW9       29.79F
BLOCK ISLAND   CLEAR     73  68  83 SW16      29.81S
WESTERLY       CLEAR     75  71  87 SW5       29.80F

 IN MA

CITY           SKY/WX    TMP DP  RH WIND       PRES   REMARKS
BOSTON         PTCLDY    77  71  82 SW9       29.75F
WORCESTER      CLEAR     74  70  87 SW12      29.80F
WESTFIELD      CLEAR     77  72  84 S7        29.75F
PROVINCETOWN   CLEAR     72  70  94 S12       29.79S
NANTUCKET      MOCLDY    70  70 100 SW9       29.82F FOG
$$

ANZ330-335-338-340-345-350-353-355-030400-
COASTAL MARINE OBSERVATIONS


STATION/POSITION TIME  SKY/WX   TEMP    WIND        PRES    VSBY  WAVE
                                AIR SEA DIR/SP/G                  HT/PER
                 (UTC)          (F)     (DEG/KT/KT) (MB)    (MI)  (FT/S)
NY HARB ENTRANCE NOT AVBL
4S FIRE IS       NOT AVBL
23SW MTP         0300                                 N/A           3/ 6
HUDSON CANYON    0300            76 75  220/ 16/ 17 1011.2          4/ 6
EXECUTION ROCKS  0300            82 75  220/ 17/ 23   N/A
WESTERN LI SOUND 0300            83     210/ 14/ 17   N/A           1
CENTRAL LI SOUND 0300            78 75  210/ 12/ 14   N/A           1/ 3
EASTERN LI SOUND 0200            74 70  220/ 12/ 16   N/A
ROBBINS REEF     0300            84     240/ 27/ 34   N/A
$$


>>>>>>>>>>>>>>>>>>>>>>>>>>>> KEY <<<<<<<<<<<<<<<<<<<<<<<<<<<
>                                                          <
>     SKY/WX - SKY CONDITION/PRESENT WEATHER               <
>     TMP    - TEMPERATURE IN FAHRENHEIT                   <
>     DP     - DEWPOINT IN FAHRENHEIT                      <
>     RH     - RELATIVE HUMIDITY IN PERCENT                <
>     WIND   - DIRECTION AND SPEED IN MPH                  <
>     PRES   - MEAN SEA LEVEL PRESSURE IN INCHES OF HG     <
>     WCI    - WIND CHILL INDEX                            <
>     VSB    - VISIBILITY IN MILES                         <
>     HX     - HEAT INDEX                                  <
>     TC     - TEMPERATURE IN CELSIUS                      <
>     VRB    - VARIABLE WIND DIRECTION                     <
>                                                          <
>>>>>>>>>>>>>>>>>>>>>>>>>>>> KEY <<<<<<<<<<<<<<<<<<<<<<<<<<<




USA.gov is the U.S. government's official web portal to all federal, state and local government web resources and services.